Location: Los Gatos B&B
(42.6926°N, 77.0646°W)
Time: 12:11:34
(UTC-04:00)

Cosmos 2263 Rocket - Visible Passes

Search period start: 30 July 2015 00:00
Search period end: 09 August 2015 00:00
Orbit: 824 x 849 km, 71.0° (Epoch: 29 July)

Date Brightness Start Highest point End Pass type
(mag) Time Alt. Az. Time Alt. Az. Time Alt. Az.
30 Jul 4.2 00:24:38 10° WSW 00:29:07 24° NW 00:33:32 10° N visible
30 Jul 2.3 22:24:33 21° S 22:28:05 53° ESE 22:33:33 10° NNE visible
31 Jul 4.1 00:07:46 10° WSW 00:12:24 25° NW 00:16:57 10° N visible
31 Jul 2.4 22:06:27 12° S 22:11:26 48° ESE 22:16:50 10° NE visible
31 Jul 4.1 23:50:56 10° WSW 23:55:40 27° NW 00:00:22 10° N visible
01 Aug 2.5 21:49:34 10° S 21:54:48 44° ESE 22:00:08 10° NE visible
01 Aug 4.0 23:34:06 10° WSW 23:38:57 29° NW 23:43:46 10° N visible
02 Aug 2.6 21:33:01 10° S 21:38:10 41° ESE 21:43:25 10° NE visible
02 Aug 3.9 23:17:17 10° WSW 23:22:14 31° NW 23:27:11 10° N visible
03 Aug 2.7 21:16:29 10° S 21:21:31 37° ESE 21:26:41 10° NE visible
03 Aug 3.8 23:00:29 10° WSW 23:05:32 33° NW 23:10:34 10° N visible
04 Aug 2.8 20:59:57 10° SSE 21:04:53 34° ESE 21:09:57 10° NE visible
04 Aug 3.7 22:43:42 10° WSW 22:48:49 36° NW 22:53:58 10° N visible
05 Aug 3.6 22:26:54 10° SW 22:32:07 38° WNW 22:37:21 10° N visible
06 Aug 3.5 22:10:08 10° SW 22:15:25 41° WNW 22:20:44 10° NNE visible
07 Aug 5.2 05:19:21 10° N 05:23:15 19° NE 05:27:18 10° E visible
07 Aug 3.4 21:53:23 10° SW 21:58:43 45° WNW 22:04:06 10° NNE visible
08 Aug 5.2 05:02:48 10° N 05:06:30 18° NE 05:10:22 10° E visible
08 Aug 3.3 21:36:37 10° SW 21:42:01 48° WNW 21:47:28 10° NNE visible
